星链-34892 (STARLINK-34892)

导读

STARLINK-34892是美国SpaceX星链星座的卫星,于2025年8月27日发射升空,归属发射国家美国。该卫星是星链项目全球卫星互联网组网计划的组成部分,旨在为全球范围内用户提供低延迟、高速率的宽带互联网接入服务,进一步推动星链星座的部署进程,扩充星座在轨卫星规模。

Basic Information
目录编号:
65350
目录名称:
STARLINK-34892
国际标识:
2025-189AD
轨道中心:
EARTH
卫星名称:
星链-34892
卫星全名:
星链-34892 (STARLINK-34892)
卫星状态:
在轨 (已飞行373 天)
发射日期:
2025-08-27 UTC
国别 :
美国 (US)
星等 :
--
Orbit Information
数据来源 国际轨道数据
星历时间: 2026-09-03T21:47:50+0800
16小时前
查看轨道信息
半长轴: 6848.844km
偏心率: 0.0001145
轨道倾角: 53.158°
近地点辐角 83.184°
升交点赤经 98.932°
平近点角 276.930°
近地点: 469.922km
远地点: 471.492km
周期: 94.013分钟
每日圈数: 15.317112
Detailed Information
固有亮度:
5
最大亮度:
2.5
卫星平台:
Starlink V1.0
覆盖范围:
全球
运营商:
太空探索技术公司
运营商所在国:
美国
制造商(研发单位):
太空探索技术公司
制造商所在国:
美国
使用方式:
暂无
Satellite Introduction
Starlink 计划是 SpaceX 推出的全球卫星互联网项目,通过发射低轨道卫星,为全球尤其是偏远地区提供高速、低延迟的互联网服务。自 2019 年起,Starlink 已部署数千颗卫星,旨在缩小全球数字鸿沟,推动互联网普及。该项目还为军事、航空等行业提供通信支持,带来广泛经济效益。
2D Orbit Map
3D Orbit Map
Orbit Altitude Analysis Chart
Orbit Inclination Analysis Chart
Orbit Comprehensive Analysis Chart
View Comprehensive Chart
Conjunction Data List
Event ID Objects TCA Miss Dist (km) Collision Risk Probability Collision Risk Index (CRI) Action
CDM_260901-062406-532406-535021
2026-09-01T
06:24:11+0000
0.107 km
中距离
5.62461E-4 高风险 0.9
CDM_260902-015506-535006-758121
2026-09-02T
01:55:12+0000
1.636 km
极远距离
5.040074E-6 低风险 0.49
CDM_260904-175004-283706-535021
2026-09-04T
17:50:19+0000
1.937 km
极远距离
1.848719E-6 低风险 0.4
CDM_260902-083506-535006-797621
2026-09-02T
08:35:53+0000
2.976 km
极远距离
1.327639E-6 低风险 0.37
CDM_260901-071606-532406-535021
2026-09-01T
07:16:37+0000
2.263 km
极远距离
3.069729E-7 极低风险 0.25